timestamp,surface_pressure_avg,surface_temp_avg,battery_voltage,lat,long
2022-04-30 00:09:00+00:00,358.3279,4.46,11.93,47.84626,-54.09684
2022-04-30 00:19:00+00:00,351.3079,4.75,11.93,47.84626,-54.09684
2022-04-30 00:29:00+00:00,344.9513,5.0,11.93,47.84626,-54.09684
2022-04-30 00:39:00+00:00,338.9897,5.05,11.93,47.84626,-54.09684
2022-04-30 00:49:00+00:00,334.8896,5.0,11.93,47.84626,-54.09684
2022-04-30 00:59:00+00:00,332.6179,5.0,11.93,47.84626,-54.09684
2022-04-30 01:09:00+00:00,326.3314,5.0,11.93,47.84626,-54.09684
2022-04-30 01:19:01+00:00,319.6113,5.0,11.93,47.84626,-54.09684
2022-04-30 01:29:01+00:00,317.1663,5.0,11.93,47.84626,-54.09684
2022-04-30 01:39:01+00:00,310.7714,5.0,11.93,47.84626,-54.09684
2022-04-30 01:49:01+00:00,299.7814,5.0,11.93,47.84626,-54.09684
2022-04-30 01:59:01+00:00,292.1097,4.96,11.93,47.84626,-54.09684
2022-04-30 02:09:01+00:00,289.1163,4.89,11.93,47.84626,-54.09684
2022-04-30 02:19:00+00:00,275.7164,4.55,11.93,47.84626,-54.09684
2022-04-30 02:29:00+00:00,263.7431,4.5,11.93,47.84626,-54.09684
2022-04-30 02:39:00+00:00,261.228,4.5,11.93,47.84626,-54.09684
2022-04-30 02:49:00+00:00,256.8281,4.38,11.93,47.84626,-54.09684
2022-04-30 02:59:00+00:00,241.5514,4.3,11.93,47.84626,-54.09684
2022-04-30 03:09:00+00:00,231.0281,4.3,11.93,47.84626,-54.09684
2022-04-30 03:19:00+00:00,228.2114,4.2,11.93,47.84626,-54.09684
2022-04-30 03:29:00+00:00,220.6198,4.1,11.93,47.84626,-54.09684
2022-04-30 03:39:00+00:00,209.9698,4.1,11.93,47.84626,-54.09684
2022-04-30 03:49:00+00:00,205.1714,4.0,11.93,47.84626,-54.09684
2022-04-30 03:59:00+00:00,202.0314,4.0,11.93,47.84626,-54.09684
2022-04-30 04:09:00+00:00,194.6165,3.98,11.93,47.84626,-54.09684
2022-04-30 04:19:00+00:00,188.5015,3.9,11.93,47.84626,-54.09684
2022-04-30 04:29:00+00:00,187.6065,3.9,11.93,47.84626,-54.09684
2022-04-30 04:39:00+00:00,184.2714,3.9,11.93,47.84626,-54.09684
2022-04-30 04:49:00+00:00,181.3498,3.8,11.93,47.84626,-54.09684
2022-04-30 04:59:00+00:00,184.1781,3.8,11.93,47.84626,-54.09684
2022-04-30 05:09:00+00:00,183.6031,3.8,11.93,47.84626,-54.09684
2022-04-30 05:19:01+00:00,182.6448,3.8,11.93,47.84626,-54.09684
2022-04-30 05:29:01+00:00,186.5464,3.8,11.93,47.84626,-54.09684
2022-04-30 05:39:01+00:00,188.4915,3.8,11.93,47.84626,-54.09684
2022-04-30 05:49:01+00:00,186.1882,3.8,11.93,47.84626,-54.09684
2022-04-30 05:59:01+00:00,187.0848,3.8,11.93,47.84626,-54.09684
2022-04-30 06:09:01+00:00,192.5715,3.79,11.93,47.84626,-54.09684
2022-04-30 06:19:00+00:00,192.8564,3.7,11.93,47.84626,-54.09684
2022-04-30 06:29:00+00:00,194.7531,3.7,11.93,47.84626,-54.09684
2022-04-30 06:39:00+00:00,202.6881,3.7,11.93,47.84626,-54.09684
2022-04-30 06:49:00+00:00,205.8481,3.7,11.93,47.84626,-54.09684
2022-04-30 06:59:00+00:00,206.4248,3.7,11.93,47.84626,-54.09684
2022-04-30 07:09:00+00:00,209.6965,3.7,11.93,47.84626,-54.09684
2022-04-30 07:19:00+00:00,216.7514,3.7,11.93,47.84626,-54.09684
2022-04-30 07:29:00+00:00,222.5497,3.69,11.93,47.84626,-54.09684
2022-04-30 07:39:00+00:00,224.7864,3.69,11.93,47.84626,-54.09684
2022-04-30 07:49:00+00:00,230.5098,3.66,11.93,47.84626,-54.09684
2022-04-30 07:59:00+00:00,240.0848,3.67,11.93,47.84626,-54.09684
2022-04-30 08:09:00+00:00,247.4964,3.69,11.93,47.84626,-54.09684
2022-04-30 08:19:00+00:00,252.4281,3.69,11.93,47.84626,-54.09684
2022-04-30 08:29:00+00:00,258.9498,3.65,11.93,47.84626,-54.09684
2022-04-30 08:39:00+00:00,266.3514,3.63,11.93,47.84626,-54.09684
2022-04-30 08:49:00+00:00,272.2997,3.67,11.93,47.84626,-54.09684
2022-04-30 08:59:00+00:00,277.4631,3.7,11.93,47.84626,-54.09684
2022-04-30 09:09:00+00:00,285.9514,3.7,11.93,47.84626,-54.09684
2022-04-30 09:19:00+00:00,291.9847,3.7,11.93,47.84626,-54.09684
2022-04-30 09:29:00+00:00,297.4097,3.63,11.93,47.84626,-54.09684
2022-04-30 09:39:00+00:00,304.928,3.6,11.93,47.84626,-54.09684
2022-04-30 09:49:00+00:00,314.2647,3.6,11.93,47.84626,-54.09684
2022-04-30 09:59:00+00:00,320.8947,3.6,11.93,47.84626,-54.09684
2022-04-30 10:09:00+00:00,326.748,3.6,11.93,47.84626,-54.09684
2022-04-30 10:19:00+00:00,334.293,3.59,11.93,47.84626,-54.09684
2022-04-30 10:29:00+00:00,340.4946,3.57,11.93,47.84626,-54.09684
2022-04-30 10:39:00+00:00,343.0463,3.5,11.93,47.84626,-54.09684
2022-04-30 10:49:00+00:00,345.74300000000005,3.43,11.93,47.84626,-54.09684
2022-04-30 10:59:00+00:00,349.8395,3.4,11.93,47.84626,-54.09684
2022-04-30 11:09:00+00:00,352.5079,3.4,11.93,47.84626,-54.09684
2022-04-30 11:19:00+00:00,351.4763,3.29,11.93,47.84626,-54.09684
2022-04-30 11:29:00+00:00,351.9079,3.3,11.93,47.84626,-54.09684
2022-04-30 11:39:00+00:00,353.7013,3.32,11.93,47.84626,-54.09684
2022-04-30 11:49:00+00:00,349.8713,3.4,11.93,47.84626,-54.09684
2022-04-30 11:59:00+00:00,347.0363,3.5,11.93,47.84626,-54.09684
2022-04-30 12:09:00+00:00,349.168,3.6,11.93,47.84626,-54.09684
2022-04-30 12:19:00+00:00,350.0729,3.6,11.93,47.84626,-54.09684
2022-04-30 12:29:00+00:00,344.7346,3.6,11.93,47.84626,-54.09684
2022-04-30 12:39:00+00:00,338.5146,3.6,11.93,47.84626,-54.09684
2022-04-30 12:49:00+00:00,340.483,3.6,11.93,47.84626,-54.09684
2022-04-30 12:59:00+00:00,337.213,3.6,11.93,47.84626,-54.09684
2022-04-30 13:09:00+00:00,325.3279,3.6,11.93,47.84626,-54.09684
2022-04-30 13:19:01+00:00,320.4046,3.6,11.93,47.84626,-54.09684
2022-04-30 13:29:01+00:00,319.2513,3.6,11.93,47.84626,-54.09684
2022-04-30 13:39:01+00:00,312.443,3.6,11.93,47.84626,-54.09684
2022-04-30 13:49:01+00:00,302.8264,3.6,11.93,47.84626,-54.09684
2022-04-30 13:59:01+00:00,299.1397,3.6,11.93,47.84626,-54.09684
2022-04-30 14:09:01+00:00,290.748,3.64,11.93,47.84626,-54.09684
2022-04-30 14:19:01+00:00,281.7231,3.63,11.93,47.84626,-54.09684
2022-04-30 14:29:01+00:00,275.1147,3.6,11.93,47.84626,-54.09684
2022-04-30 14:39:01+00:00,267.4464,3.6,11.93,47.84626,-54.09684
2022-04-30 14:49:01+00:00,255.7414,3.68,11.93,47.84626,-54.09684
2022-04-30 14:59:01+00:00,249.7147,3.7,11.93,47.84626,-54.09684
2022-04-30 15:09:01+00:00,247.1047,3.68,11.93,47.84626,-54.09684
2022-04-30 15:19:00+00:00,238.1114,3.66,11.93,47.84626,-54.09684
2022-04-30 15:29:00+00:00,226.2914,3.7,11.93,47.84626,-54.09684
2022-04-30 15:39:00+00:00,220.8898,3.71,11.93,47.84626,-54.09684
2022-04-30 15:49:00+00:00,216.7831,3.78,11.93,47.84626,-54.09684
2022-04-30 15:59:00+00:00,207.6965,3.76,11.93,47.84626,-54.09684
2022-04-30 16:09:00+00:00,200.1881,3.7,11.93,47.84626,-54.09684
2022-04-30 16:19:00+00:00,199.4915,3.7,11.93,47.84626,-54.09684
2022-04-30 16:29:00+00:00,198.9198,3.7,11.93,47.84626,-54.09684
2022-04-30 16:39:00+00:00,193.3498,3.7,11.93,47.84626,-54.09684
2022-04-30 16:49:00+00:00,189.1298,3.69,11.93,47.84626,-54.09684
2022-04-30 16:59:00+00:00,188.8681,3.69,11.93,47.84626,-54.09684
2022-04-30 17:09:00+00:00,185.8531,3.7,11.93,47.84626,-54.09684
2022-04-30 17:19:00+00:00,183.8765,3.7,11.93,47.84626,-54.09684
2022-04-30 17:29:00+00:00,186.9747,3.7,11.93,47.84626,-54.09684
2022-04-30 17:39:00+00:00,188.5698,3.69,11.93,47.84626,-54.09684
2022-04-30 17:49:00+00:00,189.5598,3.7,11.93,47.84626,-54.09684
2022-04-30 17:59:00+00:00,194.9748,3.7,11.93,47.84626,-54.09684
2022-04-30 18:09:00+00:00,199.6215,3.7,11.93,47.84626,-54.09684
2022-04-30 18:19:01+00:00,202.4514,3.76,11.93,47.84626,-54.09684
2022-04-30 18:29:01+00:00,208.0181,3.7,11.93,47.84626,-54.09684
2022-04-30 18:39:01+00:00,212.1531,3.7,11.93,47.84626,-54.09684
2022-04-30 18:49:01+00:00,215.3814,3.79,11.93,47.84626,-54.09684
2022-04-30 18:59:01+00:00,219.2298,3.8,11.93,47.84626,-54.09684
2022-04-30 19:09:01+00:00,224.2481,3.88,11.93,47.84626,-54.09684
2022-04-30 19:19:00+00:00,228.0681,3.9,11.93,47.84626,-54.09684
2022-04-30 19:29:00+00:00,231.2531,3.9,11.93,47.84626,-54.09684
2022-04-30 19:39:00+00:00,234.1264,3.9,11.93,47.84626,-54.09684
2022-04-30 19:49:00+00:00,239.9681,3.9,11.93,47.84626,-54.09684
2022-04-30 19:59:00+00:00,246.8065,3.9,11.93,47.84626,-54.09684
2022-04-30 20:09:00+00:00,253.1164,3.9,11.93,47.84626,-54.09684
2022-04-30 20:19:01+00:00,257.9581,3.89,11.93,47.84626,-54.09684
2022-04-30 20:29:01+00:00,265.4297,3.8,11.93,47.84626,-54.09684
2022-04-30 20:39:01+00:00,271.1997,3.8,11.93,47.84626,-54.09684
2022-04-30 20:49:01+00:00,276.4981,3.73,11.93,47.84626,-54.09684
2022-04-30 20:59:01+00:00,281.498,3.8,11.93,47.84626,-54.09684
2022-04-30 21:09:01+00:00,288.4481,3.8,11.93,47.84626,-54.09684
2022-04-30 21:19:00+00:00,293.9664,3.7,11.93,47.84626,-54.09684
2022-04-30 21:29:00+00:00,299.7681,3.68,11.93,47.84626,-54.09684
2022-04-30 21:39:00+00:00,306.83799999999997,3.6,11.93,47.84626,-54.09684
2022-04-30 21:49:00+00:00,316.3247,3.61,11.93,47.84626,-54.09684
2022-04-30 21:59:00+00:00,324.2863,3.6,11.93,47.84626,-54.09684
2022-04-30 22:09:00+00:00,330.8013,3.6,11.93,47.84626,-54.09684
2022-04-30 22:19:00+00:00,338.4380000000001,3.6,11.93,47.84626,-54.09684
2022-04-30 22:29:00+00:00,345.6996,3.5,11.93,47.84626,-54.09684
2022-04-30 22:39:00+00:00,350.5529,3.59,11.93,47.84626,-54.09684
2022-04-30 22:49:00+00:00,352.898,3.6,11.93,47.84626,-54.09684
2022-04-30 22:59:00+00:00,358.9463,3.6,11.93,47.84626,-54.09684
2022-04-30 23:09:00+00:00,361.4014,3.5,11.93,47.84626,-54.09684
2022-04-30 23:19:00+00:00,360.56300000000016,3.5,11.93,47.84626,-54.09684
2022-04-30 23:29:00+00:00,362.9412,3.5,11.93,47.84626,-54.09684
2022-04-30 23:39:00+00:00,368.0496,3.5,11.93,47.84626,-54.09684
2022-04-30 23:49:00+00:00,368.0347,3.59,11.93,47.84626,-54.09684
2022-04-30 23:59:00+00:00,366.3547,3.7,11.93,47.84626,-54.09684
